West Columbia, SC

8:10 PM EDT on August 25, 2016 (GMT -0400)
Columbia Metro

Weather History for KCAE - December, 2012

Change the Weather History Date:

Saturday, December 8, 2012

  Actual Average Record
Temperature  
Mean Temperature 61 °F 48 °F  
Max Temperature 72 °F 60 °F 83 °F (1978)
Min Temperature 49 °F 37 °F 16 °F (2010)
Degree Days  
Heating Degree Days 4 17  
Month to date heating degree days 45 128  
Since 1 July heating degree days 506 569  
Cooling Degree Days 0 0  
Month to date cooling degree days 0 0  
Year to date cooling degree days 2505 2167  
Growing Degree Days 10 (Base 50)    
Moisture  
Dew Point 51 °F    
Average Humidity 77    
Maximum Humidity 100    
Minimum Humidity 53    
Precipitation  
Precipitation 0.00 in 0.10 in 1.95 in (1989)
Month to date precipitation T 0.80  
Year to date precipitation 39.25 42.17  
Sea Level Pressure  
Sea Level Pressure 30.05 in    
Wind  
Wind Speed 2 mph (WSW)    
Max Wind Speed 9 mph    
Max Gust Speed 15 mph    
Visibility 6 miles    
Events Fog    
T = Trace of Precipitation, MM = Missing Value Source: NWS Daily Summary

Daily Weather History Graph

Daily Weather History Graph

Search for Another Location

Airport or City:

Trip Planner

Search our weather history database for the weather conditions in past years. The results will help you decide how hot, cold, wet, or windy it might be!

Date:

Astronomy

Dec. 08, 2012 Rise Set
Actual Time 7:17 AM EST 5:15 PM EST
Civil Twilight 6:50 AM EST 5:43 PM EST
Nautical Twilight 6:19 AM EST 6:14 PM EST
Astronomical Twilight 5:48 AM EST 6:44 PM EST
Moon 1:52 AM EST (12/8) 1:34 PM EST (12/8)
Length of Visible Light 10h 52m
Length of Day
9h 57m
Waning Crescent, 28% of the Moon is Illuminated
Dec 8
Waning Crescent
Dec 13
New
Dec 20
First Quarter
Dec 28
Full
Jan 4
Last Quarter

Hourly Weather History & Observations

Time (EST) Temp. Dew Point Humidity Pressure Visibility Wind Dir Wind Speed Gust Speed Precip Events Conditions
12:56 AM 51.1 °F 50.0 °F 96% 30.03 in 0.5 mi West 4.6 mph - N/A   Overcast
1:56 AM 52.0 °F 51.1 °F 97% 30.04 in 0.2 mi Calm Calm - N/A Fog Fog
2:56 AM 53.1 °F 51.1 °F 93% 30.03 in 0.5 mi Calm Calm - N/A   Overcast
3:56 AM 53.1 °F 51.1 °F 93% 30.02 in 0.5 mi NW 3.5 mph - N/A   Overcast
4:56 AM 52.0 °F 50.0 °F 93% 30.02 in 0.5 mi WNW 3.5 mph - N/A   Overcast
5:56 AM 51.1 °F 50.0 °F 96% 30.04 in 0.5 mi West 3.5 mph - N/A   Overcast
6:56 AM 51.1 °F 50.0 °F 96% 30.05 in 0.2 mi Calm Calm - N/A Fog Fog
7:56 AM 50.0 °F 48.9 °F 96% 30.06 in 0.0 mi WSW 3.5 mph - N/A Fog Fog
8:56 AM 48.9 °F 48.0 °F 97% 30.08 in 0.2 mi Calm Calm - N/A Fog Fog
9:37 AM 50.0 °F 48.2 °F 94% 30.09 in 6.0 mi Calm Calm - N/A   Mostly Cloudy
9:56 AM 51.1 °F 48.9 °F 92% 30.09 in 8.0 mi Calm Calm - N/A   Mostly Cloudy
10:10 AM 53.6 °F 48.2 °F 82% 30.09 in 9.0 mi WSW 3.5 mph - N/A   Mostly Cloudy
10:56 AM 59.0 °F 50.0 °F 72% 30.07 in 10.0 mi Calm Calm - N/A   Mostly Cloudy
11:56 AM 63.0 °F 51.1 °F 65% 30.06 in 10.0 mi South 3.5 mph - N/A   Mostly Cloudy
12:56 PM 66.9 °F 52.0 °F 59% 30.02 in 10.0 mi West 3.5 mph - N/A   Mostly Cloudy
1:56 PM 71.1 °F 53.1 °F 53% 30.01 in 10.0 mi Variable 4.6 mph - N/A   Mostly Cloudy
2:56 PM 72.0 °F 53.1 °F 51% 30.00 in 10.0 mi SSW 6.9 mph - N/A   Scattered Clouds
3:56 PM 71.1 °F 53.1 °F 53% 30.01 in 10.0 mi SW 4.6 mph - N/A   Scattered Clouds
4:56 PM 69.1 °F 53.1 °F 57% 30.02 in 10.0 mi SW 5.8 mph - N/A   Mostly Cloudy
5:56 PM 64.9 °F 53.1 °F 65% 30.03 in 10.0 mi Calm Calm - N/A   Mostly Cloudy
6:56 PM 62.1 °F 54.0 °F 75% 30.04 in 10.0 mi South 3.5 mph - N/A   Mostly Cloudy
7:56 PM 62.1 °F 53.1 °F 72% 30.05 in 10.0 mi SSW 3.5 mph - N/A   Scattered Clouds
8:56 PM 61.0 °F 52.0 °F 72% 30.06 in 10.0 mi Calm Calm - N/A   Clear
9:56 PM 57.9 °F 52.0 °F 81% 30.07 in 10.0 mi Calm Calm - N/A   Partly Cloudy
10:56 PM 57.9 °F 52.0 °F 81% 30.07 in 10.0 mi Calm Calm - N/A   Mostly Cloudy
11:56 PM 55.0 °F 50.0 °F 83% 30.07 in 10.0 mi Calm Calm - N/A   Scattered Clouds